Location: Unspecified
(36.1767°N, 0.0000°E)
Time: 11:02:08
(UTC+00:00)

CUBEBUG 2 - Visible Passes

Search period start: 04 April 2026 00:00
Search period end: 14 April 2026 00:00
Orbit: 549 x 628 km, 97.9° (Epoch: 29 March)

Date Brightness Start Highest point End Pass type
(mag) Time Alt. Az. Time Alt. Az. Time Alt. Az.
4 Apr ? 02:53:21 10° N 02:53:46 12° N 02:53:46 12° N visible
5 Apr ? 03:00:50 10° N 03:01:18 12° NNW 03:01:18 12° NNW visible
6 Apr ? 03:08:21 10° NNW 03:08:48 12° NNW 03:08:48 12° NNW visible
7 Apr ? 03:15:53 10° NNW 03:16:18 12° NNW 03:16:18 12° NNW visible
8 Apr ? 01:47:16 10° NNE 01:47:16 10° NNE 01:47:16 10° NNE visible
8 Apr ? 03:23:29 10° NNW 03:23:46 11° NNW 03:23:46 11° NNW visible
9 Apr ? 01:54:26 10° NNE 01:54:44 12° NNE 01:54:44 12° NNE visible
9 Apr ? 03:31:10 10° NNW 03:31:14 10° NNW 03:31:14 10° NNW visible
10 Apr ? 02:01:36 10° NNE 02:02:11 14° NNE 02:02:11 14° NNE visible
11 Apr ? 02:08:48 10° NNE 02:09:37 15° NNE 02:09:37 15° NNE visible
12 Apr ? 02:16:01 10° NNE 02:17:03 17° NNE 02:17:03 17° NNE visible
13 Apr ? 02:23:15 10° N 02:24:27 19° N 02:24:27 19° N visible
